Year,Month,Day,Hour,Minute,Value (Times are PST for temperature in C)
2018,06,12,00,00,10.40
2018,06,12,00,01,10.40
2018,06,12,00,02,10.40
2018,06,12,00,03,10.40
2018,06,12,00,04,10.40
2018,06,12,00,05,10.30
2018,06,12,00,06,10.30
2018,06,12,00,07,10.30
2018,06,12,00,08,10.20
2018,06,12,00,09,10.20
2018,06,12,00,10,10.20
2018,06,12,00,11,10.20
2018,06,12,00,12,10.20
2018,06,12,00,13,10.10
2018,06,12,00,14,10.10
2018,06,12,00,15,10.10
2018,06,12,00,16,10.10
2018,06,12,00,17,10.00
2018,06,12,00,18,9.90
2018,06,12,00,19,9.90
2018,06,12,00,20,9.90
2018,06,12,00,21,9.90
2018,06,12,00,22,9.80
2018,06,12,00,23,9.80
2018,06,12,00,24,9.80
2018,06,12,00,25,9.80
2018,06,12,00,26,9.70
2018,06,12,00,27,9.70
2018,06,12,00,28,9.70
2018,06,12,00,29,9.70
2018,06,12,00,30,9.70
2018,06,12,00,31,9.70
2018,06,12,00,32,9.70
2018,06,12,00,33,9.70
2018,06,12,00,34,9.70
2018,06,12,00,35,9.70
2018,06,12,00,36,9.70
2018,06,12,00,37,9.70
2018,06,12,00,38,9.70
2018,06,12,00,39,9.60
2018,06,12,00,40,9.60
2018,06,12,00,41,9.60
2018,06,12,00,42,9.60
2018,06,12,00,43,9.60
2018,06,12,00,44,9.60
2018,06,12,00,45,9.70
2018,06,12,00,46,9.70
2018,06,12,00,47,9.70
2018,06,12,00,48,9.60
2018,06,12,00,49,9.60
2018,06,12,00,50,9.60
2018,06,12,00,51,9.60
2018,06,12,00,52,9.50
2018,06,12,00,53,9.50
2018,06,12,00,54,9.50
2018,06,12,00,55,9.50
2018,06,12,00,56,9.50
2018,06,12,00,57,9.40
2018,06,12,00,58,9.40
2018,06,12,00,59,9.40
2018,06,12,01,00,9.40
2018,06,12,01,01,9.40
2018,06,12,01,02,9.40
2018,06,12,01,03,9.30
2018,06,12,01,04,9.30
2018,06,12,01,05,9.30
2018,06,12,01,06,9.30
2018,06,12,01,07,9.20
2018,06,12,01,08,9.20
2018,06,12,01,09,9.20
2018,06,12,01,10,9.20
2018,06,12,01,11,9.20
2018,06,12,01,12,9.20
2018,06,12,01,13,9.20
2018,06,12,01,14,9.20
2018,06,12,01,15,9.20
2018,06,12,01,16,9.20
2018,06,12,01,17,9.20
2018,06,12,01,18,9.10
2018,06,12,01,19,9.10
2018,06,12,01,20,9.00
2018,06,12,01,21,9.00
2018,06,12,01,22,9.00
2018,06,12,01,23,8.90
2018,06,12,01,24,8.90
2018,06,12,01,25,8.80
2018,06,12,01,26,8.80
2018,06,12,01,27,8.70
2018,06,12,01,28,8.70
2018,06,12,01,29,8.70
2018,06,12,01,30,8.70
2018,06,12,01,31,8.60
2018,06,12,01,32,8.60
2018,06,12,01,33,8.60
2018,06,12,01,34,8.50
2018,06,12,01,35,8.50
2018,06,12,01,36,8.50
2018,06,12,01,37,8.50
2018,06,12,01,38,8.50
2018,06,12,01,39,8.50
2018,06,12,01,40,8.50
2018,06,12,01,41,8.50
2018,06,12,01,42,8.50
2018,06,12,01,43,8.50
2018,06,12,01,44,8.50
2018,06,12,01,45,8.50
2018,06,12,01,46,8.50
2018,06,12,01,47,8.50
2018,06,12,01,48,8.50
2018,06,12,01,49,8.50
2018,06,12,01,50,8.50
2018,06,12,01,51,8.50
2018,06,12,01,52,8.50
2018,06,12,01,53,8.40
2018,06,12,01,54,8.40
2018,06,12,01,55,8.40
2018,06,12,01,56,8.40
2018,06,12,01,57,8.30
2018,06,12,01,58,8.30
2018,06,12,01,59,8.30
2018,06,12,02,00,8.20
2018,06,12,02,01,8.20
2018,06,12,02,02,8.20
2018,06,12,02,03,8.20
2018,06,12,02,04,8.20
2018,06,12,02,05,8.20
2018,06,12,02,06,8.20
2018,06,12,02,07,8.20
2018,06,12,02,08,8.20
2018,06,12,02,09,8.20
2018,06,12,02,10,8.20
2018,06,12,02,11,8.20
2018,06,12,02,12,8.20
2018,06,12,02,13,8.20
2018,06,12,02,14,8.20
2018,06,12,02,15,8.20
2018,06,12,02,16,8.20
2018,06,12,02,17,8.20
2018,06,12,02,18,8.20
2018,06,12,02,19,8.20
2018,06,12,02,20,8.20
2018,06,12,02,21,8.20
2018,06,12,02,22,8.20
2018,06,12,02,23,8.20
2018,06,12,02,24,8.20
2018,06,12,02,25,8.20
2018,06,12,02,26,8.20
2018,06,12,02,27,8.20
2018,06,12,02,28,8.10
2018,06,12,02,29,8.10
2018,06,12,02,30,8.10
2018,06,12,02,31,8.00
2018,06,12,02,32,8.00
2018,06,12,02,33,8.00
2018,06,12,02,34,7.90
2018,06,12,02,35,7.90
2018,06,12,02,36,7.90
2018,06,12,02,37,7.90
2018,06,12,02,38,7.90
2018,06,12,02,39,7.90
2018,06,12,02,40,7.90
2018,06,12,02,41,7.90
2018,06,12,02,42,7.90
2018,06,12,02,43,7.90
2018,06,12,02,44,7.90
2018,06,12,02,45,7.90
2018,06,12,02,46,7.90
2018,06,12,02,47,7.90
2018,06,12,02,48,7.80
2018,06,12,02,49,7.80
2018,06,12,02,50,7.80
2018,06,12,02,51,7.80
2018,06,12,02,52,7.80
2018,06,12,02,53,7.80
2018,06,12,02,54,7.70
2018,06,12,02,55,7.70
2018,06,12,02,56,7.70
2018,06,12,02,57,7.70
2018,06,12,02,58,7.70
2018,06,12,02,59,7.70
2018,06,12,03,00,7.60
2018,06,12,03,01,7.60
2018,06,12,03,02,7.60
2018,06,12,03,03,7.60
2018,06,12,03,04,7.60
2018,06,12,03,05,7.60
2018,06,12,03,06,7.60
2018,06,12,03,07,7.60
2018,06,12,03,08,7.60
2018,06,12,03,09,7.60
2018,06,12,03,10,7.70
2018,06,12,03,11,7.70
2018,06,12,03,12,7.70
2018,06,12,03,13,7.80
2018,06,12,03,14,7.80
2018,06,12,03,15,7.80
2018,06,12,03,16,7.80
2018,06,12,03,17,7.80
2018,06,12,03,18,7.80
2018,06,12,03,19,7.80
2018,06,12,03,20,7.80
2018,06,12,03,21,7.80
2018,06,12,03,22,7.80
2018,06,12,03,23,7.80
2018,06,12,03,24,7.80
2018,06,12,03,25,7.80
2018,06,12,03,26,7.90
2018,06,12,03,27,7.90
2018,06,12,03,28,7.90
2018,06,12,03,29,7.90
2018,06,12,03,30,7.80
2018,06,12,03,31,7.80
2018,06,12,03,32,7.80
2018,06,12,03,33,7.80
2018,06,12,03,34,7.70
2018,06,12,03,35,7.70
2018,06,12,03,36,7.60
2018,06,12,03,37,7.60
2018,06,12,03,38,7.60
2018,06,12,03,39,7.60
2018,06,12,03,40,7.60
2018,06,12,03,41,7.60
2018,06,12,03,42,7.60
2018,06,12,03,43,7.60
2018,06,12,03,44,7.60
2018,06,12,03,45,7.60
2018,06,12,03,46,7.50
2018,06,12,03,47,7.50
2018,06,12,03,48,7.50
2018,06,12,03,49,7.40
2018,06,12,03,50,7.40
2018,06,12,03,51,7.40
2018,06,12,03,52,7.30
2018,06,12,03,53,7.30
2018,06,12,03,54,7.30
2018,06,12,03,55,7.30
2018,06,12,03,56,7.20
2018,06,12,03,57,7.20
2018,06,12,03,58,7.10
2018,06,12,03,59,7.10
2018,06,12,04,00,7.10
2018,06,12,04,01,7.10
2018,06,12,04,02,7.10
2018,06,12,04,03,7.00
2018,06,12,04,04,7.00
2018,06,12,04,05,7.00
2018,06,12,04,06,7.00
2018,06,12,04,07,7.00
2018,06,12,04,08,7.00
2018,06,12,04,09,7.00
2018,06,12,04,10,7.00
2018,06,12,04,11,7.00
2018,06,12,04,12,7.00
2018,06,12,04,13,6.90
2018,06,12,04,14,6.90
2018,06,12,04,15,6.90
2018,06,12,04,16,6.90
2018,06,12,04,17,6.90
2018,06,12,04,18,7.00
2018,06,12,04,19,7.00
2018,06,12,04,20,7.00
2018,06,12,04,21,7.10
2018,06,12,04,22,7.10
2018,06,12,04,23,7.10
2018,06,12,04,24,7.10
2018,06,12,04,25,7.10
2018,06,12,04,26,7.10
2018,06,12,04,27,7.10
2018,06,12,04,28,7.10
2018,06,12,04,29,7.10
2018,06,12,04,30,7.10
2018,06,12,04,31,7.20
2018,06,12,04,32,7.20
2018,06,12,04,33,7.20
2018,06,12,04,34,7.30
2018,06,12,04,35,7.30
2018,06,12,04,36,7.30
2018,06,12,04,37,7.30
2018,06,12,04,38,7.30
2018,06,12,04,39,7.30
2018,06,12,04,40,7.30
2018,06,12,04,41,7.30
2018,06,12,04,42,7.20
2018,06,12,04,43,7.20
2018,06,12,04,44,7.20
2018,06,12,04,45,7.10
2018,06,12,04,46,7.10
2018,06,12,04,47,7.00
2018,06,12,04,48,7.00
2018,06,12,04,49,7.00
2018,06,12,04,50,7.10
2018,06,12,04,51,7.10
2018,06,12,04,52,7.20
2018,06,12,04,53,7.30
2018,06,12,04,54,7.40
2018,06,12,04,55,7.40
2018,06,12,04,56,7.40
2018,06,12,04,57,7.40
2018,06,12,04,58,7.40
2018,06,12,04,59,7.40
2018,06,12,05,00,7.50
2018,06,12,05,01,7.50
2018,06,12,05,02,7.50
2018,06,12,05,03,7.50
2018,06,12,05,04,7.50
2018,06,12,05,05,7.50
2018,06,12,05,06,7.50
2018,06,12,05,07,7.50
2018,06,12,05,08,7.50
2018,06,12,05,09,7.50
2018,06,12,05,10,7.50
2018,06,12,05,11,7.50
2018,06,12,05,12,7.50
2018,06,12,05,13,7.50
2018,06,12,05,14,7.50
2018,06,12,05,15,7.40
2018,06,12,05,16,7.40
2018,06,12,05,17,7.40
2018,06,12,05,18,7.40
2018,06,12,05,19,7.40
2018,06,12,05,20,7.40
2018,06,12,05,21,7.30
2018,06,12,05,22,7.30
2018,06,12,05,23,7.30
2018,06,12,05,24,7.30
2018,06,12,05,25,7.30
2018,06,12,05,26,7.30
2018,06,12,05,27,7.30
2018,06,12,05,28,7.30
2018,06,12,05,29,7.30
2018,06,12,05,30,7.30
2018,06,12,05,31,7.30
2018,06,12,05,32,7.30
2018,06,12,05,33,7.30
2018,06,12,05,34,7.30
2018,06,12,05,35,7.30
2018,06,12,05,36,7.40
2018,06,12,05,37,7.50
2018,06,12,05,38,7.50
2018,06,12,05,39,7.50
2018,06,12,05,40,7.60
2018,06,12,05,41,7.60
2018,06,12,05,42,7.60
2018,06,12,05,43,7.60
2018,06,12,05,44,7.60
2018,06,12,05,45,7.70
2018,06,12,05,46,7.70
2018,06,12,05,47,7.70
2018,06,12,05,48,7.80
2018,06,12,05,49,7.80
2018,06,12,05,50,7.80
2018,06,12,05,51,7.80
2018,06,12,05,52,7.80
2018,06,12,05,53,7.80
2018,06,12,05,54,7.90
2018,06,12,05,55,7.90
2018,06,12,05,56,8.00
2018,06,12,05,57,8.00
2018,06,12,05,58,8.10
2018,06,12,05,59,8.20
2018,06,12,06,00,8.20
2018,06,12,06,01,8.20
2018,06,12,06,02,8.30
2018,06,12,06,03,8.30
2018,06,12,06,04,8.30
2018,06,12,06,05,8.40
2018,06,12,06,06,8.40
2018,06,12,06,07,8.40
2018,06,12,06,08,8.50
2018,06,12,06,09,8.50
2018,06,12,06,10,8.50
2018,06,12,06,11,8.60
2018,06,12,06,12,8.60
2018,06,12,06,13,8.60
2018,06,12,06,14,8.60
2018,06,12,06,15,8.60
2018,06,12,06,16,8.60
2018,06,12,06,17,8.60
2018,06,12,06,18,8.60
2018,06,12,06,19,8.60
2018,06,12,06,20,8.70
2018,06,12,06,21,8.70
2018,06,12,06,22,8.80
2018,06,12,06,23,8.90
2018,06,12,06,24,8.90
2018,06,12,06,25,9.00
2018,06,12,06,26,9.00
2018,06,12,06,27,9.00
2018,06,12,06,28,9.00
2018,06,12,06,29,9.00
2018,06,12,06,30,9.00
2018,06,12,06,31,9.00
2018,06,12,06,32,9.10
2018,06,12,06,33,9.10
2018,06,12,06,34,9.10
2018,06,12,06,35,9.20
2018,06,12,06,36,9.20
2018,06,12,06,37,9.20
2018,06,12,06,38,9.20
2018,06,12,06,39,9.30
2018,06,12,06,40,9.30
2018,06,12,06,41,9.40
2018,06,12,06,42,9.40
2018,06,12,06,43,9.50
2018,06,12,06,44,9.50
2018,06,12,06,45,9.50
2018,06,12,06,46,9.60
2018,06,12,06,47,9.60
2018,06,12,06,48,9.70
2018,06,12,06,49,9.70
2018,06,12,06,50,9.70
2018,06,12,06,51,9.70
2018,06,12,06,52,9.70
2018,06,12,06,53,9.80
2018,06,12,06,54,9.80
2018,06,12,06,55,9.90
2018,06,12,06,56,9.90
2018,06,12,06,57,9.90
2018,06,12,06,58,10.00
2018,06,12,06,59,10.10
2018,06,12,07,00,10.10
2018,06,12,07,01,10.10
2018,06,12,07,02,10.20
2018,06,12,07,03,10.20
2018,06,12,07,04,10.30
2018,06,12,07,05,10.30
2018,06,12,07,06,10.40
2018,06,12,07,07,10.40
2018,06,12,07,08,10.50
2018,06,12,07,09,10.60
2018,06,12,07,10,10.60
2018,06,12,07,11,10.60
2018,06,12,07,12,10.60
2018,06,12,07,13,10.60
2018,06,12,07,14,10.70
2018,06,12,07,15,10.70
2018,06,12,07,16,10.80
2018,06,12,07,17,10.80
2018,06,12,07,18,10.90
2018,06,12,07,19,10.90
2018,06,12,07,20,11.00
2018,06,12,07,21,11.10
2018,06,12,07,22,11.20
2018,06,12,07,23,11.20
2018,06,12,07,24,11.20
2018,06,12,07,25,11.20
2018,06,12,07,26,11.30
2018,06,12,07,27,11.40
2018,06,12,07,28,11.40
2018,06,12,07,29,11.40
2018,06,12,07,30,11.50
2018,06,12,07,31,11.60
2018,06,12,07,32,11.60
2018,06,12,07,33,11.60
2018,06,12,07,34,11.70
2018,06,12,07,35,11.80
2018,06,12,07,36,11.80
2018,06,12,07,37,11.80
2018,06,12,07,38,11.80
2018,06,12,07,39,11.80
2018,06,12,07,40,11.90
2018,06,12,07,41,11.90
2018,06,12,07,42,11.90
2018,06,12,07,43,11.90
2018,06,12,07,44,11.90
2018,06,12,07,45,12.00
2018,06,12,07,46,12.00
2018,06,12,07,47,12.00
2018,06,12,07,48,12.10
2018,06,12,07,49,12.10
2018,06,12,07,50,12.10
2018,06,12,07,51,12.10
2018,06,12,07,52,12.10
2018,06,12,07,53,12.20
2018,06,12,07,54,12.20
2018,06,12,07,55,12.20
2018,06,12,07,56,12.30
2018,06,12,07,57,12.30
2018,06,12,07,58,12.30
2018,06,12,07,59,12.30
2018,06,12,08,00,12.30
2018,06,12,08,01,12.30
2018,06,12,08,02,12.30
2018,06,12,08,03,12.40
2018,06,12,08,04,12.40
2018,06,12,08,05,12.40
2018,06,12,08,06,12.50
2018,06,12,08,07,12.50
2018,06,12,08,08,12.60
2018,06,12,08,09,12.70
2018,06,12,08,10,12.80
2018,06,12,08,11,12.80
2018,06,12,08,12,12.80
2018,06,12,08,13,12.80
2018,06,12,08,14,12.80
2018,06,12,08,15,12.80
2018,06,12,08,16,12.90
2018,06,12,08,17,12.90
2018,06,12,08,18,13.00
2018,06,12,08,19,13.00
2018,06,12,08,20,13.00
2018,06,12,08,21,13.10
2018,06,12,08,22,13.10
2018,06,12,08,23,13.20
2018,06,12,08,24,13.30
2018,06,12,08,25,13.30
2018,06,12,08,26,13.30
2018,06,12,08,27,13.30
2018,06,12,08,28,13.30
2018,06,12,08,29,13.30
2018,06,12,08,30,13.30
2018,06,12,08,31,13.40
2018,06,12,08,32,13.40
2018,06,12,08,33,13.40
2018,06,12,08,34,13.40
2018,06,12,08,35,13.40
2018,06,12,08,36,13.50
2018,06,12,08,37,13.50
2018,06,12,08,38,13.50
2018,06,12,08,39,13.50
2018,06,12,08,40,13.50
2018,06,12,08,41,13.50
2018,06,12,08,42,13.50
2018,06,12,08,43,13.50
2018,06,12,08,44,13.60
2018,06,12,08,45,13.60
2018,06,12,08,46,13.70
2018,06,12,08,47,13.70
2018,06,12,08,48,13.70
2018,06,12,08,49,13.70
2018,06,12,08,50,13.70
2018,06,12,08,51,13.70
2018,06,12,08,52,13.80
2018,06,12,08,53,13.80
2018,06,12,08,54,13.80
2018,06,12,08,55,13.80
2018,06,12,08,56,13.80
2018,06,12,08,57,13.90
2018,06,12,08,58,13.90
2018,06,12,08,59,13.90
2018,06,12,09,00,14.00
2018,06,12,09,01,14.10
2018,06,12,09,02,14.10
2018,06,12,09,03,14.00
2018,06,12,09,04,14.00
2018,06,12,09,05,13.90
2018,06,12,09,06,13.90
2018,06,12,09,07,13.90
2018,06,12,09,08,13.90
2018,06,12,09,09,13.90
2018,06,12,09,10,13.90
2018,06,12,09,11,13.90
2018,06,12,09,12,13.90
2018,06,12,09,13,13.90
2018,06,12,09,14,14.00
2018,06,12,09,15,14.00
2018,06,12,09,16,14.00
2018,06,12,09,17,14.10
2018,06,12,09,18,14.10
2018,06,12,09,19,14.20
2018,06,12,09,20,14.30
2018,06,12,09,21,14.40
2018,06,12,09,22,14.40
2018,06,12,09,23,14.40
2018,06,12,09,24,14.40
2018,06,12,09,25,14.40
2018,06,12,09,26,14.40
2018,06,12,09,27,14.30
2018,06,12,09,28,14.30
2018,06,12,09,29,14.30
2018,06,12,09,30,14.20
2018,06,12,09,31,14.20
2018,06,12,09,32,14.20
2018,06,12,09,33,14.20
2018,06,12,09,34,14.30
2018,06,12,09,35,14.30
2018,06,12,09,36,14.40
2018,06,12,09,37,14.50
2018,06,12,09,38,14.60
2018,06,12,09,39,14.60
2018,06,12,09,40,14.60
2018,06,12,09,41,14.70
2018,06,12,09,42,14.70
2018,06,12,09,43,14.70
2018,06,12,09,44,14.60
2018,06,12,09,45,14.60
2018,06,12,09,46,14.60
2018,06,12,09,47,14.60
2018,06,12,09,48,14.60
2018,06,12,09,49,14.60
2018,06,12,09,50,14.60
2018,06,12,09,51,14.60
2018,06,12,09,52,14.60
2018,06,12,09,53,14.60
2018,06,12,09,54,14.50
2018,06,12,09,55,14.50
2018,06,12,09,56,14.50
2018,06,12,09,57,14.50
2018,06,12,09,58,14.60
2018,06,12,09,59,14.60
2018,06,12,10,00,14.60
2018,06,12,10,01,14.60
2018,06,12,10,02,14.50
2018,06,12,10,03,14.50
2018,06,12,10,04,14.50
2018,06,12,10,05,14.50
2018,06,12,10,06,14.60
2018,06,12,10,07,14.60
2018,06,12,10,08,14.60
2018,06,12,10,09,14.60
2018,06,12,10,10,14.60
2018,06,12,10,11,14.60
2018,06,12,10,12,14.60
2018,06,12,10,13,14.60
2018,06,12,10,14,14.60
2018,06,12,10,15,14.60
2018,06,12,10,16,14.60
2018,06,12,10,17,14.60
2018,06,12,10,18,14.60
2018,06,12,10,19,14.60
2018,06,12,10,20,14.70
2018,06,12,10,21,14.70
2018,06,12,10,22,14.80
2018,06,12,10,23,14.80
2018,06,12,10,24,14.80
2018,06,12,10,25,14.80
2018,06,12,10,26,14.80
2018,06,12,10,27,14.80
2018,06,12,10,28,14.80
2018,06,12,10,29,14.80
2018,06,12,10,30,14.80
2018,06,12,10,31,14.80
2018,06,12,10,32,14.90
2018,06,12,10,33,14.90
2018,06,12,10,34,14.90
2018,06,12,10,35,14.90
2018,06,12,10,36,15.00
2018,06,12,10,37,15.10
2018,06,12,10,38,15.10
2018,06,12,10,39,15.20
2018,06,12,10,40,15.20
2018,06,12,10,41,15.20
2018,06,12,10,42,15.20
2018,06,12,10,43,15.20
2018,06,12,10,44,15.20
2018,06,12,10,45,15.20
2018,06,12,10,46,15.10
2018,06,12,10,47,15.10
2018,06,12,10,48,15.10
2018,06,12,10,49,15.10
2018,06,12,10,50,15.10
2018,06,12,10,51,15.10
2018,06,12,10,52,15.00
2018,06,12,10,53,15.00
2018,06,12,10,54,15.00
2018,06,12,10,55,15.00
2018,06,12,10,56,14.90
2018,06,12,10,57,14.90
2018,06,12,10,58,14.90
2018,06,12,10,59,15.00
2018,06,12,11,00,15.00
2018,06,12,11,01,15.10
2018,06,12,11,02,15.10
2018,06,12,11,03,15.10
2018,06,12,11,04,15.00
2018,06,12,11,05,15.10
2018,06,12,11,06,15.10
2018,06,12,11,07,15.10
2018,06,12,11,08,15.10
2018,06,12,11,09,15.10
2018,06,12,11,10,15.00
2018,06,12,11,11,14.90
2018,06,12,11,12,14.90
2018,06,12,11,13,15.00
2018,06,12,11,14,15.10
2018,06,12,11,15,15.10
2018,06,12,11,16,15.00
2018,06,12,11,17,15.00
2018,06,12,11,18,15.00
2018,06,12,11,19,14.90
2018,06,12,11,20,14.90
2018,06,12,11,21,14.90
2018,06,12,11,22,14.90
2018,06,12,11,23,15.00
2018,06,12,11,24,15.00
2018,06,12,11,25,15.00
2018,06,12,11,26,15.00
2018,06,12,11,27,15.00
2018,06,12,11,28,15.00
2018,06,12,11,29,14.90
2018,06,12,11,30,14.90
2018,06,12,11,31,14.80
2018,06,12,11,32,14.80
2018,06,12,11,33,14.80
2018,06,12,11,34,14.80
2018,06,12,11,35,14.80
2018,06,12,11,36,14.90
2018,06,12,11,37,14.90
2018,06,12,11,38,15.00
2018,06,12,11,39,15.00
2018,06,12,11,40,15.00
2018,06,12,11,41,15.00
2018,06,12,11,42,15.10
2018,06,12,11,43,15.20
2018,06,12,11,44,15.20
2018,06,12,11,45,15.20
2018,06,12,11,46,15.30
2018,06,12,11,47,15.30
2018,06,12,11,48,15.30
2018,06,12,11,49,15.30
2018,06,12,11,50,15.30
2018,06,12,11,51,15.30
2018,06,12,11,52,15.30
2018,06,12,11,53,15.20
2018,06,12,11,54,15.20
2018,06,12,11,55,15.20
2018,06,12,11,56,15.20
2018,06,12,11,57,15.20
2018,06,12,11,58,15.30
2018,06,12,11,59,15.30
2018,06,12,12,00,15.30
2018,06,12,12,01,15.30
2018,06,12,12,02,15.30
2018,06,12,12,03,15.30
2018,06,12,12,04,15.30
2018,06,12,12,05,15.30
2018,06,12,12,06,15.40
2018,06,12,12,07,15.40
2018,06,12,12,08,15.50
2018,06,12,12,09,15.50
2018,06,12,12,10,15.50
2018,06,12,12,11,15.40
2018,06,12,12,12,15.30
2018,06,12,12,13,15.30
2018,06,12,12,14,15.30
2018,06,12,12,15,15.30
2018,06,12,12,16,15.30
2018,06,12,12,17,15.30
2018,06,12,12,18,15.30
2018,06,12,12,19,15.30
2018,06,12,12,20,15.20
2018,06,12,12,21,15.20
2018,06,12,12,22,15.20
2018,06,12,12,23,15.20
2018,06,12,12,24,15.10
2018,06,12,12,25,15.10
2018,06,12,12,26,15.00
2018,06,12,12,27,15.00
2018,06,12,12,28,15.00
2018,06,12,12,29,15.10
2018,06,12,12,30,15.10
2018,06,12,12,31,15.10
2018,06,12,12,32,15.20
2018,06,12,12,33,15.20
2018,06,12,12,34,15.20
2018,06,12,12,35,15.30
2018,06,12,12,36,15.30
2018,06,12,12,37,15.40
2018,06,12,12,38,15.50
2018,06,12,12,39,15.60
2018,06,12,12,40,15.60
2018,06,12,12,41,15.60
2018,06,12,12,42,15.60
2018,06,12,12,43,15.60
2018,06,12,12,44,15.60
2018,06,12,12,45,15.60
2018,06,12,12,46,15.50
2018,06,12,12,47,15.50
2018,06,12,12,48,15.40
2018,06,12,12,49,15.40
2018,06,12,12,50,15.40
2018,06,12,12,51,15.30
2018,06,12,12,52,15.30
2018,06,12,12,53,15.30
2018,06,12,12,54,15.30
2018,06,12,12,55,15.30
2018,06,12,12,56,15.30
2018,06,12,12,57,15.30
2018,06,12,12,58,15.30
2018,06,12,12,59,15.30
2018,06,12,13,00,15.30
2018,06,12,13,01,15.30
2018,06,12,13,02,15.30
2018,06,12,13,03,15.40
2018,06,12,13,04,15.40
2018,06,12,13,05,15.50
2018,06,12,13,06,15.50
2018,06,12,13,07,15.60
2018,06,12,13,08,15.60
2018,06,12,13,09,15.60
2018,06,12,13,10,15.70
2018,06,12,13,11,15.80
2018,06,12,13,12,15.80
2018,06,12,13,13,15.90
2018,06,12,13,14,16.00
2018,06,12,13,15,16.10
2018,06,12,13,16,16.10
2018,06,12,13,17,16.10
2018,06,12,13,18,16.10
2018,06,12,13,19,16.10
2018,06,12,13,20,16.00
2018,06,12,13,21,15.90
2018,06,12,13,22,15.80
2018,06,12,13,23,15.80
2018,06,12,13,24,15.70
2018,06,12,13,25,15.70
2018,06,12,13,26,15.70
2018,06,12,13,27,15.70
2018,06,12,13,28,15.70
2018,06,12,13,29,15.80
2018,06,12,13,30,15.80
2018,06,12,13,31,15.80
2018,06,12,13,32,15.80
2018,06,12,13,33,15.80
2018,06,12,13,34,15.80
2018,06,12,13,35,15.70
2018,06,12,13,36,15.60
2018,06,12,13,37,15.60
2018,06,12,13,38,15.60
2018,06,12,13,39,15.60
2018,06,12,13,40,15.60
2018,06,12,13,41,15.70
2018,06,12,13,42,15.70
2018,06,12,13,43,15.70
2018,06,12,13,44,15.70
2018,06,12,13,45,15.80
2018,06,12,13,46,15.80
2018,06,12,13,47,15.80
2018,06,12,13,48,15.90
2018,06,12,13,49,15.90
2018,06,12,13,50,15.90
2018,06,12,13,51,15.90
2018,06,12,13,52,15.90
2018,06,12,13,53,15.90
2018,06,12,13,54,15.90
2018,06,12,13,55,15.90
2018,06,12,13,56,15.90
2018,06,12,13,57,16.00
2018,06,12,13,58,16.10
2018,06,12,13,59,16.10
2018,06,12,14,00,16.20
2018,06,12,14,01,16.20
2018,06,12,14,02,16.30
2018,06,12,14,03,16.30
2018,06,12,14,04,16.40
2018,06,12,14,05,16.40
2018,06,12,14,06,16.40
2018,06,12,14,07,16.40
2018,06,12,14,08,16.40
2018,06,12,14,09,16.40
2018,06,12,14,10,16.40
2018,06,12,14,11,16.40
2018,06,12,14,12,16.40
2018,06,12,14,13,16.40
2018,06,12,14,14,16.40
2018,06,12,14,15,16.40
2018,06,12,14,16,16.40
2018,06,12,14,17,16.60
2018,06,12,14,18,16.60
2018,06,12,14,19,16.60
2018,06,12,14,20,16.50
2018,06,12,14,21,16.40
2018,06,12,14,22,16.40
2018,06,12,14,23,16.40
2018,06,12,14,24,16.40
2018,06,12,14,25,16.40
2018,06,12,14,26,16.40
2018,06,12,14,27,16.40
2018,06,12,14,28,16.50
2018,06,12,14,29,16.60
2018,06,12,14,30,16.60
2018,06,12,14,31,16.70
2018,06,12,14,32,16.80
2018,06,12,14,33,16.80
2018,06,12,14,34,16.80
2018,06,12,14,35,16.70
2018,06,12,14,36,16.70
2018,06,12,14,37,16.70
2018,06,12,14,38,16.70
2018,06,12,14,39,16.60
2018,06,12,14,40,16.60
2018,06,12,14,41,16.50
2018,06,12,14,42,16.40
2018,06,12,14,43,16.40
2018,06,12,14,44,16.40
2018,06,12,14,45,16.40
2018,06,12,14,46,16.40
2018,06,12,14,47,16.40
2018,06,12,14,48,16.40
2018,06,12,14,49,16.40
2018,06,12,14,50,16.40
2018,06,12,14,51,16.40
2018,06,12,14,52,16.30
2018,06,12,14,53,16.30
2018,06,12,14,54,16.30
2018,06,12,14,55,16.30
2018,06,12,14,56,16.30
2018,06,12,14,57,16.30
2018,06,12,14,58,16.30
2018,06,12,14,59,16.30
2018,06,12,15,00,16.30
2018,06,12,15,01,16.20
2018,06,12,15,02,16.20
2018,06,12,15,03,16.20
2018,06,12,15,04,16.20
2018,06,12,15,05,16.20
2018,06,12,15,06,16.30
2018,06,12,15,07,16.30
2018,06,12,15,08,16.30
2018,06,12,15,09,16.40
2018,06,12,15,10,16.40
2018,06,12,15,11,16.40
2018,06,12,15,12,16.50
2018,06,12,15,13,16.60
2018,06,12,15,14,16.60
2018,06,12,15,15,16.70
2018,06,12,15,16,16.70
2018,06,12,15,17,16.90
2018,06,12,15,18,16.90
2018,06,12,15,19,17.00
2018,06,12,15,20,17.10
2018,06,12,15,21,17.20
2018,06,12,15,22,17.30
2018,06,12,15,23,17.30
2018,06,12,15,24,17.20
2018,06,12,15,25,17.20
2018,06,12,15,26,17.10
2018,06,12,15,27,17.10
2018,06,12,15,28,17.10
2018,06,12,15,29,17.10
2018,06,12,15,30,17.10
2018,06,12,15,31,17.10
2018,06,12,15,32,17.10
2018,06,12,15,33,17.10
2018,06,12,15,34,17.20
2018,06,12,15,35,17.30
2018,06,12,15,36,17.40
2018,06,12,15,37,17.50
2018,06,12,15,38,17.50
2018,06,12,15,39,17.50
2018,06,12,15,40,17.40
2018,06,12,15,41,17.50
2018,06,12,15,42,17.50
2018,06,12,15,43,17.30
2018,06,12,15,44,17.20
2018,06,12,15,45,17.10
2018,06,12,15,46,17.00
2018,06,12,15,47,17.00
2018,06,12,15,48,16.90
2018,06,12,15,49,16.80
2018,06,12,15,50,16.80
2018,06,12,15,51,16.70
2018,06,12,15,52,16.70
2018,06,12,15,53,16.70
2018,06,12,15,54,16.70
2018,06,12,15,55,16.70
2018,06,12,15,56,16.70
2018,06,12,15,57,16.70
2018,06,12,15,58,16.70
2018,06,12,15,59,16.80
2018,06,12,16,00,16.70
2018,06,12,16,01,16.70
2018,06,12,16,02,16.70
2018,06,12,16,03,16.60
2018,06,12,16,04,16.60
2018,06,12,16,05,16.60
2018,06,12,16,06,16.60
2018,06,12,16,07,16.60
2018,06,12,16,08,16.50
2018,06,12,16,09,16.40
2018,06,12,16,10,16.40
2018,06,12,16,11,16.40
2018,06,12,16,12,16.40
2018,06,12,16,13,16.40
2018,06,12,16,14,16.40
2018,06,12,16,15,16.40
2018,06,12,16,16,16.40
2018,06,12,16,17,16.60
2018,06,12,16,18,16.60
2018,06,12,16,19,16.60
2018,06,12,16,20,16.60
2018,06,12,16,21,16.60
2018,06,12,16,22,16.70
2018,06,12,16,23,16.70
2018,06,12,16,24,16.70
2018,06,12,16,25,16.70
2018,06,12,16,26,16.70
2018,06,12,16,27,16.70
2018,06,12,16,28,16.70
2018,06,12,16,29,16.70
2018,06,12,16,30,16.70
2018,06,12,16,31,16.80
2018,06,12,16,32,16.90
2018,06,12,16,33,17.00
2018,06,12,16,34,17.10
2018,06,12,16,35,17.30
2018,06,12,16,36,17.30
2018,06,12,16,37,17.40
2018,06,12,16,38,17.50
2018,06,12,16,39,17.50
2018,06,12,16,40,17.50
2018,06,12,16,41,17.50
2018,06,12,16,42,17.50
2018,06,12,16,43,17.50
2018,06,12,16,44,17.50
2018,06,12,16,45,17.50
2018,06,12,16,46,17.50
2018,06,12,16,47,17.50
2018,06,12,16,48,17.50
2018,06,12,16,49,17.50
2018,06,12,16,50,17.50
2018,06,12,16,51,17.50
2018,06,12,16,52,17.50
2018,06,12,16,53,17.40
2018,06,12,16,54,17.50
2018,06,12,16,55,17.50
2018,06,12,16,56,17.40
2018,06,12,16,57,17.40
2018,06,12,16,58,17.40
2018,06,12,16,59,17.50
2018,06,12,17,00,17.50
2018,06,12,17,01,17.50
2018,06,12,17,02,17.50
2018,06,12,17,03,17.50
2018,06,12,17,04,17.40
2018,06,12,17,05,17.30
2018,06,12,17,06,17.30
2018,06,12,17,07,17.30
2018,06,12,17,08,17.40
2018,06,12,17,09,17.40
2018,06,12,17,10,17.50
2018,06,12,17,11,17.60
2018,06,12,17,12,17.70
2018,06,12,17,13,17.70
2018,06,12,17,14,17.70
2018,06,12,17,15,17.80
2018,06,12,17,16,17.80
2018,06,12,17,17,17.80
2018,06,12,17,18,17.80
2018,06,12,17,19,17.70
2018,06,12,17,20,17.70
2018,06,12,17,21,17.70
2018,06,12,17,22,17.70
2018,06,12,17,23,17.70
2018,06,12,17,24,17.70
2018,06,12,17,25,17.70
2018,06,12,17,26,17.60
2018,06,12,17,27,17.60
2018,06,12,17,28,17.60
2018,06,12,17,29,17.70
2018,06,12,17,30,17.80
2018,06,12,17,31,17.90
2018,06,12,17,32,17.90
2018,06,12,17,33,18.00
2018,06,12,17,34,18.20
2018,06,12,17,35,18.30
2018,06,12,17,36,18.40